Flag for U.S.A. Weather past 2 weeks in Shreveport, Louisiana, U.S.A.

Now
69 °F

Fog.


Feels Like: 69 °F
Forecast: 70 / 77 °F
Wind: 6 mph from Northeast

Location: Shreveport Regional Airport

Current Time: Aug 1, 2014 at 9:34:34 AM

Latest Report: Aug 1, 2014 at 8:56 AM


Visibility: 4 mi

Pressure: 29.98 "Hg

Humidity: 93%

Dew point: 67 °F

Location of ShreveportLocation

Historic Weather in Shreveport — Graph

°F

Shreveport temperature yesterday

Maximum temperature yesterday: 76 °F (at 12:56 AM)
Minimum temperature yesterday: 69 °F (at 11:56 PM)
Average temperature yesterday: 72 °F

Past Weeks' High & Low Weather Summary

 TemperatureHumidityPressure
High95 °F (Jul 27, 4:56 PM)97% (Jul 24, 5:56 AM)30.11 "Hg (Jul 24, 5:56 AM)
Low65 °F (Jul 21, 3:56 AM)36% (Jul 30, 2:56 PM)29.88 "Hg (Jul 18, 3:56 AM)
Average77 °F76%30.01 "Hg
* Reported Jul 17 7:56 AM — Aug 1 7:56 AM, Shreveport, Weather by CustomWeather, © 2014

Note: Actual official high and low records may vary slightly from our data, if they occured in-between our weather recording intervals... More about our weather records

Advertising

Shreveport weather history for previous 24 hours

 ConditionsComfort  
Time TempWeatherWind HumidityBarometerVisibility
7:56 AM
Aug 1
68 °FDrizzle. Fog.5 mph96%29.96 "Hg2 mi
6:56 AM68 °FDrizzle. Low clouds.6 mph93%29.96 "Hg3 mi
5:56 AM68 °FDrizzle. Low clouds.6 mph93%29.95 "Hg5 mi
4:56 AM68 °FDrizzle. Low clouds.3 mph90%29.96 "Hg4 mi
3:56 AM67 °FMostly cloudy.7 mph93%29.95 "Hg8 mi
2:56 AM67 °FMostly cloudy.8 mph93%29.96 "Hg9 mi
1:56 AM68 °FLight rain. Fog.9 mph93%29.97 "Hg4 mi
12:56 AM68 °FMostly cloudy.13 mph93%29.99 "Hg7 mi
11:56 PM
Jul 31
69 °FLight rain. Overcast.7 mph93%29.99 "Hg8 mi
10:56 PM70 °FLight rain. Fog.8 mph90%29.98 "Hg3 mi
10:01 PM72 °FRain. Fog.14 mph88%29.97 "Hg2 mi
8:57 PM72 °FRain. Fog.7 mph94%29.94 "Hg2 mi
7:56 PM73 °FMore clouds than sun.10 mph90%29.93 "Hg8 mi
6:56 PM73 °FOvercast.8 mph90%29.93 "Hg9 mi
5:56 PM73 °FLight rain. Mostly cloudy.10 mph90%29.93 "Hg9 mi
4:56 PM74 °FLight rain. Fog.8 mph91%29.96 "Hg5 mi
3:56 PM72 °FLight rain. Fog.7 mph91%29.97 "Hg4 mi
2:56 PM73 °FLight rain. Fog.6 mph90%29.98 "Hg5 mi
1:56 PM74 °FMore clouds than sun.3 mph85%30.00 "Hg9 mi
12:56 PM74 °FBroken clouds.9 mph85%30.01 "Hg10 mi
11:56 AM72 °FLight rain. More clouds than sun.8 mph87%30.03 "Hg9 mi
10:56 AM71 °FLight rain. Fog.7 mph90%30.03 "Hg6 mi
9:56 AM70 °FLight rain. Fog.No wind93%30.04 "Hg6 mi
Weather by CustomWeather, © 2014

See weather overviewHow to use our weather pages